Previsão horária em Juraszka

Hoje, 21 Junho, Segunda-feira

Tempo Temperatura Precipitação Vento Pressão Humidade
00:00 +16°C° 0 mm 1 m/s 682 mmHg 89%
01:00 +15°C° 0 mm 1 m/s 682 mmHg 89%
02:00 +15°C° 0 mm 1 m/s 682 mmHg 89%
03:00 +15°C° 0 mm 1 m/s 681 mmHg 89%
04:00 +15°C° 0 mm 1 m/s 681 mmHg 89%
05:00 +18°C° 0 mm 1 m/s 682 mmHg 82%
06:00 +20°C° 0 mm 1 m/s 682 mmHg 74%
07:00 +22°C° 0 mm 1 m/s 682 mmHg 67%
08:00 +24°C° 0 mm 1 m/s 683 mmHg 61%
09:00 +25°C° 0 mm 1 m/s 683 mmHg 55%
10:00 +27°C° 0 mm 1 m/s 683 mmHg 49%
11:00 +27°C° 0.1 mm 1 m/s 683 mmHg 49%
12:00 +27°C° 0.1 mm 2 m/s 683 mmHg 49%
13:00 +27°C° 0.1 mm 2 m/s 683 mmHg 49%
14:00 +26°C° 0.2 mm 1 m/s 683 mmHg 53%
15:00 +26°C° 0.2 mm 1 m/s 683 mmHg 57%
16:00 +25°C° 0.2 mm 1 m/s 682 mmHg 62%
17:00 +24°C° 0.1 mm 1 m/s 682 mmHg 68%
18:00 +22°C° 0.1 mm 1 m/s 682 mmHg 74%
19:00 +21°C° 0.1 mm 1 m/s 682 mmHg 80%
20:00 +20°C° 0.3 mm 1 m/s 682 mmHg 83%
21:00 +19°C° 0.3 mm 1 m/s 682 mmHg 85%
22:00 +18°C° 0.3 mm 1 m/s 682 mmHg 87%
23:00 +18°C° 0.4 mm 1 m/s 682 mmHg 89%

Amanhã, 22 Junho, Terça-feira

Tempo Temperatura Precipitação Vento Pressão Humidade
00:00 +16°C° 0.4 mm 1 m/s 682 mmHg 91%
01:00 +16°C° 0.4 mm 1 m/s 682 mmHg 93%
02:00 +16°C° 0 mm 1 m/s 682 mmHg 92%
03:00 +16°C° 0 mm 1 m/s 682 mmHg 92%
04:00 +16°C° 0 mm 1 m/s 682 mmHg 92%
05:00 +18°C° 0 mm 1 m/s 682 mmHg 88%
06:00 +20°C° 0 mm 1 m/s 682 mmHg 83%
07:00 +21°C° 0 mm 1 m/s 683 mmHg 79%
08:00 +22°C° 1.1 mm 1 m/s 683 mmHg 77%
09:00 +23°C° 1.1 mm 1 m/s 683 mmHg 76%
10:00 +24°C° 1.1 mm 1 m/s 684 mmHg 74%
11:00 +24°C° 1.1 mm 1 m/s 684 mmHg 75%
12:00 +24°C° 1.1 mm 1 m/s 684 mmHg 76%
13:00 +24°C° 1.1 mm 1 m/s 684 mmHg 77%
14:00 +24°C° 0.7 mm 1 m/s 684 mmHg 75%
15:00 +24°C° 0.7 mm 1 m/s 684 mmHg 73%
16:00 +24°C° 0.7 mm 1 m/s 684 mmHg 71%
17:00 +23°C° 0.5 mm 1 m/s 684 mmHg 76%
18:00 +22°C° 0.5 mm 1 m/s 684 mmHg 82%
19:00 +21°C° 0.5 mm 1 m/s 684 mmHg 87%
20:00 +20°C° 0.2 mm 1 m/s 684 mmHg 88%
21:00 +19°C° 0.2 mm 1 m/s 684 mmHg 90%
22:00 +18°C° 0.2 mm 1 m/s 684 mmHg 91%
23:00 +16°C° 0.1 mm 1 m/s 684 mmHg 91%

Depois de amanhã, 23 Junho, Quarta-feira

Tempo Temperatura Precipitação Vento Pressão Humidade
00:00 +16°C° 0.1 mm 1 m/s 684 mmHg 92%
01:00 +16°C° 0.1 mm 1 m/s 684 mmHg 93%
02:00 +15°C° 0 mm 1 m/s 684 mmHg 93%
03:00 +14°C° 0 mm 0 m/s 684 mmHg 94%
04:00 +14°C° 0 mm 0 m/s 684 mmHg 94%
05:00 +16°C° 0 mm 1 m/s 685 mmHg 92%
06:00 +19°C° 0 mm 1 m/s 685 mmHg 89%
07:00 +20°C° 0 mm 1 m/s 686 mmHg 87%
08:00 +21°C° 0.2 mm 1 m/s 686 mmHg 83%
09:00 +22°C° 0.2 mm 1 m/s 687 mmHg 79%
10:00 +23°C° 0.2 mm 1 m/s 687 mmHg 75%
11:00 +24°C° 0.4 mm 1 m/s 687 mmHg 73%
12:00 +24°C° 0.4 mm 1 m/s 687 mmHg 72%
13:00 +25°C° 0.4 mm 1 m/s 688 mmHg 70%
14:00 +24°C° 0.6 mm 1 m/s 688 mmHg 72%
15:00 +24°C° 0.6 mm 1 m/s 688 mmHg 74%
16:00 +24°C° 0.6 mm 1 m/s 688 mmHg 75%
17:00 +23°C° 0.5 mm 1 m/s 688 mmHg 81%
18:00 +22°C° 0.5 mm 1 m/s 688 mmHg 86%
19:00 +20°C° 0.5 mm 1 m/s 688 mmHg 92%
20:00 +20°C° 0.1 mm 1 m/s 688 mmHg 93%
21:00 +19°C° 0.1 mm 1 m/s 688 mmHg 95%
22:00 +18°C° 0.1 mm 1 m/s 688 mmHg 97%
23:00 +16°C° 0 mm 1 m/s 688 mmHg 97%

24 Junho, Quinta-feira

Tempo Temperatura Precipitação Vento Pressão Humidade
00:00 +15°C° 0 mm 0 m/s 687 mmHg 97%
01:00 +15°C° 0 mm 0 m/s 687 mmHg 97%
02:00 +16°C° 0 mm 1 m/s 687 mmHg 97%
03:00 +16°C° 0 mm 1 m/s 687 mmHg 97%
04:00 +15°C° 0 mm 1 m/s 687 mmHg 97%
05:00 +18°C° 0 mm 1 m/s 687 mmHg 94%
06:00 +17°C° 0 mm 0 m/s 687 mmHg 91%
07:00 +18°C° 0 mm 0 m/s 688 mmHg 88%
08:00 +20°C° 0.2 mm 0 m/s 688 mmHg 81%
09:00 +23°C° 0.2 mm 1 m/s 688 mmHg 74%
10:00 +25°C° 0.2 mm 1 m/s 688 mmHg 67%
11:00 +27°C° 0.2 mm 1 m/s 688 mmHg 60%
12:00 +28°C° 0.2 mm 1 m/s 688 mmHg 54%
13:00 +29°C° 0.2 mm 2 m/s 688 mmHg 48%
14:00 +28°C° 0.4 mm 2 m/s 688 mmHg 53%
15:00 +27°C° 0.4 mm 2 m/s 688 mmHg 59%
16:00 +27°C° 0.4 mm 2 m/s 688 mmHg 64%
17:00 +25°C° 1.8 mm 2 m/s 687 mmHg 73%
18:00 +23°C° 1.8 mm 2 m/s 687 mmHg 81%
19:00 +20°C° 1.8 mm 2 m/s 686 mmHg 89%
20:00 +19°C° 1.1 mm 2 m/s 686 mmHg 90%
21:00 +18°C° 1.1 mm 2 m/s 685 mmHg 92%
22:00 +17°C° 1.1 mm 2 m/s 685 mmHg 93%
23:00 +18°C° 0.2 mm 1 m/s 684 mmHg 93%

25 Junho, Sexta-feira

Tempo Temperatura Precipitação Vento Pressão Humidade
00:00 +16°C° 0.2 mm 1 m/s 684 mmHg 93%
01:00 +16°C° 0.2 mm 1 m/s 684 mmHg 93%
02:00 +16°C° 0.5 mm 1 m/s 684 mmHg 94%
03:00 +16°C° 0.5 mm 1 m/s 684 mmHg 95%
04:00 +15°C° 0.5 mm 1 m/s 684 mmHg 96%
05:00 +18°C° 0 mm 1 m/s 684 mmHg 94%
06:00 +19°C° 0 mm 1 m/s 684 mmHg 92%
07:00 +20°C° 0 mm 1 m/s 684 mmHg 89%
08:00 +20°C° 0.1 mm 2 m/s 684 mmHg 85%
09:00 +20°C° 0.1 mm 2 m/s 685 mmHg 80%
10:00 +21°C° 0.1 mm 3 m/s 685 mmHg 75%
11:00 +20°C° 0.3 mm 3 m/s 685 mmHg 78%
12:00 +20°C° 0.3 mm 2 m/s 685 mmHg 80%
13:00 +19°C° 0.3 mm 2 m/s 685 mmHg 82%
14:00 +20°C° 0 mm 2 m/s 685 mmHg 78%
15:00 +20°C° 0 mm 2 m/s 685 mmHg 74%
16:00 +21°C° 0 mm 3 m/s 685 mmHg 70%
17:00 +20°C° 0.1 mm 3 m/s 685 mmHg 74%
18:00 +19°C° 0.1 mm 2 m/s 685 mmHg 78%
19:00 +18°C° 0.1 mm 2 m/s 685 mmHg 82%
20:00 +16°C° 0 mm 2 m/s 685 mmHg 87%
21:00 +15°C° 0 mm 2 m/s 685 mmHg 91%
22:00 +13°C° 0 mm 2 m/s 685 mmHg 96%
23:00 +14°C° 0.1 mm 2 m/s 685 mmHg 96%

26 Junho, Sábado

Tempo Temperatura Precipitação Vento Pressão Humidade
00:00 +14°C° 0.1 mm 1 m/s 685 mmHg 95%
01:00 +14°C° 0.1 mm 1 m/s 685 mmHg 95%
02:00 +14°C° 0.5 mm 1 m/s 685 mmHg 96%
03:00 +14°C° 0.5 mm 1 m/s 685 mmHg 97%
04:00 +14°C° 0.5 mm 1 m/s 685 mmHg 98%
05:00 +14°C° 0.3 mm 1 m/s 685 mmHg 97%
06:00 +14°C° 0.3 mm 1 m/s 686 mmHg 97%
07:00 +14°C° 0.3 mm 1 m/s 686 mmHg 96%
08:00 +14°C° 0.6 mm 1 m/s 686 mmHg 95%
09:00 +14°C° 0.6 mm 1 m/s 686 mmHg 94%
10:00 +15°C° 0.6 mm 1 m/s 686 mmHg 93%
11:00 +15°C° 0.3 mm 1 m/s 686 mmHg 91%
12:00 +15°C° 0.3 mm 1 m/s 686 mmHg 89%
13:00 +16°C° 0.3 mm 1 m/s 686 mmHg 87%
14:00 +15°C° 0.5 mm 1 m/s 686 mmHg 88%
15:00 +15°C° 0.5 mm 1 m/s 686 mmHg 89%
16:00 +15°C° 0.5 mm 1 m/s 685 mmHg 90%
17:00 +15°C° 0.4 mm 1 m/s 685 mmHg 92%
18:00 +14°C° 0.4 mm 1 m/s 685 mmHg 93%
19:00 +14°C° 0.4 mm 1 m/s 685 mmHg 95%
20:00 +13°C° 0.2 mm 1 m/s 686 mmHg 96%
21:00 +13°C° 0.2 mm 1 m/s 686 mmHg 97%
22:00 +12°C° 0.2 mm 1 m/s 686 mmHg 97%
23:00 +12°C° 0.1 mm 1 m/s 686 mmHg 97%
Mostrar mais

Necessitamos do seu Consentimento

A Meteoprog e os seus Fornecedores de Serviços podem armazenar e aceder a dados pessoais como cookies, identificadores do dispositivo ou outras tecnologias semelhantes existentes no seu dispositivo e processar estes dados para personalizar conteúdos e anúncios, assim como funcionalidades nas redes sociais e análise de tráfego.

  • Armazenar e/ou aceder a informações no seu dispositivo

    Os cookies, identificadores do dispositivo ou outras informações podem ser armazenados ou acedidos no seu dispositivo, para os fins acima indicados.

  • Anúncios e conteúdos personalizados, medição de anúncios e conteúdos, dados sobre o público-alvo e desenvolvimento de produtos

    Os anúncios e os conteúdos podem ser personalizados com base num perfil. Podem ser adicionados dados adicionais para uma maior personalização dos anúncios e dos conteúdos. A eficácia dos anúncios e dos conteúdos pode ser medida. Podem ser obtidas informações sobre o público que visualizou os anúncios e os conteúdos. Estes dados podem ser usados para desenvolver ou melhorar sistemas, softwares ou a experiência do utilizador.

Ao clicar em "Eu concordo”, permitirá o uso de cookies, identificadores do dispositivo e web beacons mencionados ou outras tecnologias semelhantes. As configurações do navegador do seu dispositivo podem ser alteradas.

Para certos fins, podem ser invocados interesses legítimos ao invés de consentimento. Pode ler mais informação sobre este assunto na nossa Política de Privacidade e Cookies.